#timestamp,LO_Frequency,Hit,StdDev 
1539378015.0,286047000.4,N
1539378015.9,286047000.4,N
1539378035.8,286047000.9,N
1539378055.6,286046998.1,N
1539378075.4,286046998.4,N
1539378095.3,286046999.1,N
1539378115.1,286046999.3,N
1539378135.8,286046998.6,N
1539378155.7,286046998.3,N
1539378175.5,286046998.6,N
1539378195.4,286046999.0,N
1539378215.2,286046998.3,N
1539378235.0,286046999.2,N
1539378235.9,286046999.2,N
1539378255.8,286046999.0,N
1539378275.6,286046999.5,N
1539378295.5,286046996.5,Y
1539378315.3,286046999.6,P
1539378335.1,286046999.4,P
1539378355.1,286046999.0,P
1539378356.0,286046999.0,Y
1539378375.8,286046998.3,P
1539378395.6,286047000.7,N
1539378415.5,286047001.1,N
1539378435.3,286047000.4,N
1539378455.2,286046998.3,N
1539378475.0,286046998.8,N
1539378475.9,286046998.8,N
1539378495.8,286047001.2,N
1539378515.6,286046998.8,N
1539378535.4,286046999.5,N
1539378555.3,286046998.9,N
1539378575.1,286046997.8,N
1539378595.8,286046997.0,N
1539378615.7,286046996.7,N
1539378635.5,286046998.4,N
1539378655.4,286046999.2,N
1539378675.2,286046999.4,N
1539378695.0,286046996.6,N
1539378695.9,286046996.6,N
1539378715.8,286046996.8,N
1539378735.6,286046996.8,N
1539378755.5,286046997.1,N
1539378775.3,286046998.4,N
1539378795.1,286046999.2,N
1539378815.9,286046999.4,N
1539378835.7,286046996.8,N
1539378855.5,286046996.8,N
1539378875.4,286046999.1,N
1539378895.2,286046999.4,N
1539378915.1,286046997.6,N
1539378916.0,286046997.6,N
1539378935.8,286046997.3,N
1539378955.6,286046999.6,N
1539378975.5,286046996.6,N
1539378995.3,286046997.2,N
1539379015.1,286046997.5,N
1539379035.9,286046996.8,N
1539379055.7,286046997.0,N
1539379075.6,286046997.1,N
1539379095.4,286046996.6,Y
1539379115.2,286046998.6,P
1539379135.1,286047000.7,N
1539379136.0,286047000.7,N
1539379155.8,286047000.6,N
1539379175.6,286047000.6,N
1539379195.5,286047000.4,N
1539379215.3,286047001.2,N
1539379235.2,286047000.8,N
1539379255.9,286047000.4,N
1539379275.7,286046998.5,N
1539379295.6,286046999.0,N
1539379315.4,286046999.5,N
1539379335.2,286046998.9,N
1539379355.6,286046999.2,N
1539379375.5,286046996.6,Y
1539379395.3,286046999.5,P
1539379415.2,286046999.6,N
1539379435.9,286046998.8,P
1539379455.7,286047001.1,N
1539379475.6,286046998.1,N
1539379495.4,286046998.6,N
1539379515.2,286046998.7,N
1539379535.1,286046999.6,N
1539379536.0,286046999.6,N
1539379555.8,286046996.7,Y
1539379575.7,286046996.5,P
1539379595.2,286046997.0,N
1539379615.0,286046997.3,N
1539379615.9,286046997.3,N
1539379635.7,286046997.3,N
1539379655.6,286046995.6,Y
1539379675.4,286046999.3,P
1539379695.3,286046998.2,N
1539379715.1,286046998.4,N
1539379716.0,286046998.4,N
1539379735.8,286046998.8,N
1539379755.7,286046998.7,N
1539379775.5,286046998.3,Y
1539379795.3,286047002.3,P
1539379815.2,286047001.8,N
1539379835.0,286047001.9,N
1539379835.9,286047001.9,N
1539379855.8,286047001.9,N
1539379875.6,286047000.5,N
1539379895.4,286047000.4,N
1539379915.3,286047000.4,N
1539379935.7,286047002.4,N
1539379955.6,286047000.7,N
1539379975.4,286046998.5,N
1539379995.3,286047001.1,N
1539380015.1,286047000.8,N
1539380035.8,286046998.5,N
1539380055.7,286046997.6,N
1539380075.5,286046997.3,N
1539380095.4,286046999.3,N
1539380115.2,286046998.8,N
1539380135.0,286046999.2,N
1539380135.9,286046999.2,N
1539380155.8,286046997.0,N
1539380175.6,286047000.8,N
1539380195.4,286046998.8,N
1539380215.3,286046999.6,N
1539380235.1,286046998.8,N
1539380255.9,286046998.8,N
1539380275.7,286046998.2,N
1539380295.5,286046998.7,N
1539380315.4,286046996.9,N
1539380335.2,286047001.0,N
1539380355.0,286046998.5,N
1539380355.9,286046998.5,N
1539380375.8,286047000.6,N
1539380395.6,286047000.2,N
1539380415.4,286047000.0,N
1539380435.3,286047000.4,N
1539380455.1,286046999.7,N
1539380475.9,286047001.2,N
1539380495.7,286047001.2,N
1539380515.5,286046999.3,N
1539380535.3,286046998.9,N
1539380555.2,286047000.5,N
1539380575.9,286047001.2,N
1539380595.7,286046998.7,N
1539380615.6,286047000.6,N
1539380635.4,286047000.7,N
1539380655.3,286047000.3,N
1539380675.1,286047001.0,N
1539380676.0,286047001.0,N
1539380695.8,286046999.9,N
1539380715.7,286047000.3,N
1539380735.7,286047001.1,N
1539380755.5,286047000.1,N
1539380775.4,286047001.0,N
1539380795.3,286047000.6,N
1539380815.1,286046998.3,N
1539380816.0,286046998.3,N
1539380835.8,286047000.7,N
1539380855.7,286047001.0,N
1539380875.5,286047001.0,N
1539380895.3,286047002.7,N
1539380915.2,286046999.8,N
1539380935.0,286046999.8,N
1539380935.9,286046999.8,N
1539380955.8,286047002.8,N
1539380975.6,286046999.9,N
1539380995.4,286047002.2,N
1539381015.3,286047002.2,N
1539381035.1,286047002.2,N
1539381055.9,286047002.8,N
1539381075.7,286047001.9,N
1539381095.6,286047002.1,N
1539381115.4,286047002.6,N
1539381135.2,286046999.7,N
1539381155.1,286047000.6,N
1539381156.0,286047000.6,N
1539381175.8,286047000.0,N
1539381195.7,286047000.0,N
1539381215.5,286047000.7,N
1539381235.3,286047002.4,N
1539381255.2,286047000.6,N
1539381275.0,286047000.4,N
1539381275.9,286047000.4,N
1539381295.8,286046999.9,N
1539381315.6,286047000.0,N
1539381335.4,286047002.6,N
1539381355.3,286047002.3,N
1539381375.1,286047002.2,N
1539381395.8,286046999.7,N
1539381415.7,286047001.5,N
1539381435.5,286047002.2,N
1539381455.4,286047002.0,N
1539381475.2,286047001.9,N
1539381495.0,286047002.1,N
1539381495.9,286047002.1,N
1539381515.8,286047001.5,N
1539381535.6,286047002.3,N
1539381555.7,286047000.5,N
1539381575.6,286046999.8,N
1539381595.4,286047002.4,N
